FW9076 Weather Reports


time (UTC)temp
F
wind
direction
speed
knots
gust
knots
rain 1hr
in
rain 24hr
in
rain mn
in
humidity
%
barometer
mb
20260504231542 70 232 0.0 5.2 0.00 0.00 0.00 41 1014.1
20260504230040 71 288 0.0 3.5 0.00 0.00 0.00 39 1014.0
20260504224542 72 235 0.0 4.3 0.00 0.00 0.00 37 1014.0
20260504223047 72 0 0.9 4.3 0.00 0.00 0.00 36 1014.0
20260504221544 72 198 0.9 7.0 0.00 0.00 0.00 37 1013.9
20260504220042 73 160 0.9 5.2 0.00 0.00 0.00 36 1013.8
20260504214540 73 230 0.9 5.2 0.00 0.00 0.00 36 1013.7
20260504213040 74 207 0.9 5.2 0.00 0.00 0.00 36 1013.8
20260504211539 74 212 0.9 7.8 0.00 0.00 0.00 35 1013.7
20260504210050 74 260 0.9 5.2 0.00 0.00 0.00 35 1013.7
20260504204541 74 200 0.0 5.2 0.00 0.00 0.00 35 1013.9
20260504203048 74 0 0.9 4.3 0.00 0.00 0.00 35 1013.9
20260504201541 75 213 2.6 5.2 0.00 0.00 0.00 34 1014.1
20260504200039 74 216 1.7 7.0 0.00 0.00 0.00 37 1014.2
20260504194548 75 225 0.9 5.2 0.00 0.00 0.00 37 1014.4
20260504193046 75 214 0.9 4.3 0.00 0.00 0.00 37 1014.5
20260504191559 75 131 1.7 4.3 0.00 0.00 0.00 35 1014.8
20260504190043 75 0 1.7 5.2 0.00 0.00 0.00 35 1014.9
20260504184613 75 219 1.7 7.0 0.00 0.00 0.00 35 1015.1
20260504183044 76 205 2.6 6.1 0.00 0.00 0.00 34 1015.1
20260504181551 76 0 1.7 3.5 0.00 0.00 0.00 36 1015.4
20260504180043 76 143 0.9 4.3 0.00 0.00 0.00 36 1015.5
20260504174545 75 221 0.9 2.6 0.00 0.00 0.00 35 1015.8
20260504173045 75 155 1.7 4.3 0.00 0.00 0.00 35 1015.8
20260504171550 76 160 0.9 2.6 0.00 0.00 0.00 37 1015.8
20260504081551 36 0 0.0 0.0 0.00 0.00 0.00 90 1017.5
20260504044539 40 0 0.0 0.0 0.00 0.00 0.00 80 1017.8
20260504043047 41 0 0.0 0.0 0.00 0.00 0.00 78 1017.7
20260504041544 41 0 0.0 0.0 0.00 0.00 0.00 79 1017.8
20260504040057 41 0 0.0 0.0 0.00 0.00 0.00 76 1017.8
20260504034540 42 0 0.0 0.0 0.00 0.00 0.00 75 1017.6
20260504033041 42 0 0.0 0.0 0.00 0.00 0.00 74 1017.5
20260504031541 43 0 0.0 0.9 0.00 0.00 0.00 73 1017.7
20260504030045 44 0 0.0 0.9 0.00 0.00 0.00 71 1017.7
20260504024540 44 0 0.0 0.9 0.00 0.00 0.00 69 1017.8
20260504023041 45 0 0.0 0.0 0.00 0.00 0.00 68 1017.9
20260504021548 46 0 0.0 0.0 0.00 0.00 0.00 65 1017.7
20260504020046 47 0 0.0 0.0 0.00 0.00 0.00 64 1017.4
20260504014547 47 0 0.0 0.0 0.00 0.00 0.00 61 1017.2
20260504013052 49 0 0.0 0.0 0.00 0.00 0.00 60 1016.9
20260504011540 49 0 0.0 0.0 0.00 0.00 0.00 58 1016.6
20260504010046 51 0 0.0 0.0 0.00 0.00 0.00 56 1016.6
20260504004557 52 0 0.0 0.0 0.00 0.00 0.00 55 1016.4
20260504003047 53 0 0.0 0.9 0.00 0.00 0.00 51 1016.4
20260504001544 55 0 0.0 0.0 0.00 0.00 0.00 51 1015.9
20260504000045 56 0 0.0 0.0 0.00 0.00 0.00 46 1015.8
20260503234540 58 0 0.0 0.9 0.00 0.00 0.00 43 1015.8
20260503233047 60 0 0.0 0.9 0.00 0.00 0.00 41 1015.7